Chillicothe, MO

3:13 AM CDT on May 23, 2017 (GMT -0500)
Chillicothe

Weather History for KCDJ - December, 2012

Change the Weather History Date:

Monday, December 24, 2012

  Actual Average (KIRK) Record (KIRK)
Temperature  
Mean Temperature 20 °F -  
Max Temperature 23 °F 34 °F 63 °F (1955)
Min Temperature 16 °F 15 °F -20 °F (1983)
Degree Days  
Heating Degree Days 46    
Moisture  
Dew Point 15 °F    
Average Humidity 81    
Maximum Humidity 92    
Minimum Humidity 68    
Precipitation  
Precipitation 0.00 in - - ()
Sea Level Pressure  
Sea Level Pressure 30.13 in    
Wind  
Wind Speed 5 mph (NNW)    
Max Wind Speed 12 mph    
Max Gust Speed 21 mph    
Averages and records for this station are not official NWS values.
T = Trace of Precipitation, MM = Missing Value Source: NWS Daily Summary

Daily Weather History Graph

Daily Weather History Graph

Search for Another Location

Airport or City:

Trip Planner

Search our weather history database for the weather conditions in past years. The results will help you decide how hot, cold, wet, or windy it might be!

Date:

Astronomy

Dec. 24, 2012 Rise Set
Actual Time 7:33 AM CST 4:54 PM CST
Civil Twilight 7:03 AM CST 5:25 PM CST
Nautical Twilight 6:29 AM CST 5:59 PM CST
Astronomical Twilight 5:56 AM CST 6:32 PM CST
Moon 2:22 PM CST (12/24) 4:12 AM CST (12/24)
Length of Visible Light 10h 22m
Length of Day
9h 21m
Waxing Gibbous, 88% of the Moon is Illuminated
Dec 24
Waxing Gibbous
Dec 28
Full
Jan 4
Last Quarter
Jan 11
New
Jan 18
First Quarter

Hourly Weather History & Observations

Time (CST) Temp. Windchill Dew Point Humidity Pressure Visibility Wind Dir Wind Speed Gust Speed Precip Events Conditions
12:52 AM 23.0 °F - 19.9 °F 88% 29.99 in - Calm Calm - N/A   Unknown
1:52 AM 21.0 °F 14.6 °F 18.0 °F 88% 30.02 in - NNW 4.6 mph - N/A   Unknown
2:52 AM 19.0 °F 13.9 °F 17.1 °F 92% 30.03 in - NNW 3.5 mph - N/A   Unknown
3:52 AM 17.1 °F 11.7 °F 15.1 °F 92% 30.02 in - NW 3.5 mph - N/A   Unknown
4:52 AM 17.1 °F 7.6 °F 14.0 °F 88% 30.03 in - NW 6.9 mph - N/A   Unknown
5:52 AM 16.0 °F 3.6 °F 14.0 °F 92% 30.07 in - NNW 10.4 mph 20.7 mph N/A   Unknown
6:52 AM 18.0 °F 9.8 °F 16.0 °F 92% 30.10 in - Variable 5.8 mph - N/A   Unknown
7:52 AM 19.0 °F 11.1 °F 17.1 °F 92% 30.09 in - WNW 5.8 mph - N/A   Unknown
8:52 AM 21.0 °F 13.4 °F 18.0 °F 88% 30.11 in - NW 5.8 mph - N/A   Unknown
9:52 AM 21.9 °F 11.0 °F 18.0 °F 85% 30.12 in - NNW 10.4 mph - N/A   Unknown
10:52 AM 21.9 °F 11.7 °F 18.0 °F 85% 30.15 in - NW 9.2 mph - N/A   Unknown
11:52 AM 21.0 °F 14.6 °F 16.0 °F 81% 30.14 in - NNW 4.6 mph - N/A   Unknown
12:52 PM 21.0 °F 11.4 °F 14.0 °F 74% 30.11 in - NW 8.1 mph 17.3 mph N/A   Unknown
1:52 PM 21.0 °F 9.3 °F 12.9 °F 71% 30.13 in - North 11.5 mph - N/A   Unknown
2:52 PM 21.0 °F 9.3 °F 12.0 °F 68% 30.15 in - NNW 11.5 mph 17.3 mph N/A   Unknown
3:52 PM 21.0 °F 14.6 °F 12.0 °F 68% 30.18 in - NW 4.6 mph - N/A   Unknown
4:52 PM 21.0 °F 12.4 °F 12.0 °F 68% 30.19 in - NNW 6.9 mph - N/A   Unknown
5:52 PM 21.0 °F 12.4 °F 12.9 °F 71% 30.21 in - NNW 6.9 mph 16.1 mph N/A   Unknown
6:52 PM 19.9 °F 12.1 °F 12.9 °F 74% 30.21 in - Variable 5.8 mph - N/A   Unknown
7:52 PM 19.9 °F 9.3 °F 14.0 °F 78% 30.21 in - North 9.2 mph - N/A   Unknown
8:52 PM 19.0 °F 9.0 °F 12.9 °F 77% 30.21 in - North 8.1 mph - N/A   Unknown
9:52 PM 19.0 °F 11.1 °F 14.0 °F 81% 30.22 in - North 5.8 mph - N/A   Unknown
10:52 PM 19.0 °F - 12.0 °F 74% 30.26 in - Calm Calm - N/A   Unknown
11:52 PM 19.0 °F 12.3 °F 14.0 °F 81% 30.26 in - North 4.6 mph - N/A   Unknown